Back to catalog

COSMOS 2254

AliveMilitaryPO
NORAD 22689·PAYLOAD·🇷🇺 Russia

Launched Jun 24, 1993 from Plesetsk Cosmodrome

Loading…

Next Passes (next 24 hours)

TLE

FreshSource: Space-Track

Epoch: Sep 14, 2026, 04:18 UTC

1 22689U 93038C   26257.17973580  .00000042  00000-0  16641-3 0  9999
2 22689  82.5834 147.0650 0012746 103.7975  62.8298 12.64915170533387

Track COSMOS 2254 in real time with AllMySat

Download on the App Store